Location: Clarion
(42.7316°N, 93.7330°W)
Time: 09:37:50
(UTC+00:00)

SL-16 R/B - Pass Details

Date: 22 April 2026
Orbit: 839 x 849 km, 71.0° (Epoch: 17 May)

Event Time Altitude Azimuth Distance (km) Brightness Sun altitude
Rises 03:53:28 0° 235° (SW) 3,386 5.4 -26.4°
Reaches altitude 10° 03:56:14 10° 247° (WSW) 2,457 4.8 -26.7°
Maximum altitude 04:01:04 29° 306° (NW) 1,517 4.1 -27.3°
Drops below altitude 10° 04:05:56 10° 5° (N) 2,475 5.2 -27.8°
Sets 04:08:45 0° 17° (NNE) 3,415 5.9 -28.1°
